Stündliche Wetter Cebulki

Heute, 27 Oktober, Dienstag

Zeit Temperatur Niederschläge Wind Luftdruck Luftfeuchtigkeit
00:00 +11°C° 0 mm 4 m/S 736 mmHg 86%
01:00 +12°C° 0 mm 4 m/S 737 mmHg 85%
02:00 +11°C° 0 mm 4 m/S 737 mmHg 87%
03:00 +10°C° 0 mm 3 m/S 737 mmHg 90%
04:00 +10°C° 0 mm 3 m/S 737 mmHg 92%
05:00 +10°C° 0 mm 2 m/S 737 mmHg 92%
06:00 +10°C° 0 mm 2 m/S 738 mmHg 92%
07:00 +10°C° 0 mm 2 m/S 738 mmHg 91%
08:00 +10°C° 0 mm 2 m/S 739 mmHg 88%
09:00 +11°C° 0 mm 3 m/S 739 mmHg 85%
10:00 +12°C° 0 mm 3 m/S 739 mmHg 82%
11:00 +12°C° 0 mm 3 m/S 739 mmHg 82%
12:00 +12°C° 0 mm 3 m/S 739 mmHg 82%
13:00 +12°C° 0 mm 3 m/S 740 mmHg 81%
14:00 +12°C° 0 mm 3 m/S 740 mmHg 82%
15:00 +11°C° 0 mm 3 m/S 740 mmHg 82%
16:00 +11°C° 0 mm 3 m/S 740 mmHg 83%
17:00 +11°C° 0 mm 3 m/S 740 mmHg 82%
18:00 +10°C° 0 mm 2 m/S 740 mmHg 81%
19:00 +10°C° 0 mm 2 m/S 741 mmHg 80%
20:00 +10°C° 0.4 mm 2 m/S 741 mmHg 82%
21:00 +9°C° 0.4 mm 2 m/S 741 mmHg 83%
22:00 +9°C° 0.4 mm 3 m/S 741 mmHg 85%
23:00 +8°C° 0.1 mm 2 m/S 741 mmHg 87%

Morgen, 28 Oktober, Mittwoch

Zeit Temperatur Niederschläge Wind Luftdruck Luftfeuchtigkeit
00:00 +8°C° 0.1 mm 2 m/S 742 mmHg 88%
01:00 +8°C° 0.1 mm 2 m/S 742 mmHg 90%
02:00 +7°C° 0 mm 2 m/S 742 mmHg 90%
03:00 +7°C° 0 mm 2 m/S 742 mmHg 90%
04:00 +7°C° 0 mm 2 m/S 742 mmHg 91%
05:00 +7°C° 0 mm 2 m/S 742 mmHg 91%
06:00 +7°C° 0 mm 2 m/S 742 mmHg 91%
07:00 +7°C° 0 mm 3 m/S 742 mmHg 91%
08:00 +8°C° 0 mm 3 m/S 742 mmHg 85%
09:00 +9°C° 0 mm 3 m/S 742 mmHg 79%
10:00 +11°C° 0 mm 4 m/S 742 mmHg 73%
11:00 +12°C° 0 mm 4 m/S 742 mmHg 69%
12:00 +12°C° 0 mm 5 m/S 742 mmHg 64%
13:00 +13°C° 0 mm 5 m/S 742 mmHg 59%
14:00 +12°C° 0 mm 4 m/S 742 mmHg 64%
15:00 +11°C° 0 mm 4 m/S 742 mmHg 69%
16:00 +11°C° 0 mm 3 m/S 741 mmHg 73%
17:00 +10°C° 0 mm 3 m/S 742 mmHg 74%
18:00 +10°C° 0 mm 3 m/S 742 mmHg 74%
19:00 +10°C° 0 mm 3 m/S 742 mmHg 74%
20:00 +9°C° 0 mm 3 m/S 742 mmHg 75%
21:00 +9°C° 0 mm 3 m/S 742 mmHg 76%
22:00 +8°C° 0 mm 3 m/S 742 mmHg 78%
23:00 +8°C° 0 mm 3 m/S 742 mmHg 80%

übermorgen, 29 Oktober, Donnerstag

Zeit Temperatur Niederschläge Wind Luftdruck Luftfeuchtigkeit
00:00 +8°C° 0 mm 3 m/S 742 mmHg 82%
01:00 +8°C° 0 mm 3 m/S 742 mmHg 85%
02:00 +7°C° 0 mm 3 m/S 742 mmHg 86%
03:00 +7°C° 0 mm 3 m/S 742 mmHg 87%
04:00 +7°C° 0 mm 3 m/S 742 mmHg 88%
05:00 +7°C° 0 mm 3 m/S 742 mmHg 89%
06:00 +7°C° 0 mm 3 m/S 742 mmHg 90%
07:00 +7°C° 0 mm 3 m/S 742 mmHg 91%
08:00 +8°C° 0 mm 3 m/S 742 mmHg 86%
09:00 +8°C° 0 mm 4 m/S 742 mmHg 80%
10:00 +10°C° 0 mm 4 m/S 742 mmHg 75%
11:00 +11°C° 0 mm 4 m/S 742 mmHg 72%
12:00 +10°C° 0 mm 5 m/S 742 mmHg 70%
13:00 +12°C° 0 mm 5 m/S 742 mmHg 67%
14:00 +11°C° 0.1 mm 4 m/S 741 mmHg 72%
15:00 +10°C° 0.1 mm 4 m/S 741 mmHg 77%
16:00 +10°C° 0.1 mm 4 m/S 741 mmHg 82%
17:00 +8°C° 0.8 mm 4 m/S 741 mmHg 83%
18:00 +9°C° 0.8 mm 3 m/S 742 mmHg 84%
19:00 +9°C° 0.8 mm 3 m/S 742 mmHg 85%
20:00 +8°C° 0 mm 3 m/S 742 mmHg 86%
21:00 +8°C° 0 mm 3 m/S 742 mmHg 86%
22:00 +7°C° 0 mm 3 m/S 743 mmHg 86%
23:00 +6°C° 0 mm 4 m/S 743 mmHg 87%

30 Oktober, Freitag

Zeit Temperatur Niederschläge Wind Luftdruck Luftfeuchtigkeit
00:00 +5°C° 0 mm 4 m/S 743 mmHg 89%
01:00 +5°C° 0 mm 4 m/S 743 mmHg 90%
02:00 +4°C° 0 mm 4 m/S 744 mmHg 91%
03:00 +4°C° 0 mm 4 m/S 744 mmHg 93%
04:00 +4°C° 0 mm 4 m/S 744 mmHg 95%
05:00 +4°C° 0 mm 4 m/S 745 mmHg 94%
06:00 +4°C° 0 mm 4 m/S 745 mmHg 93%
07:00 +5°C° 0 mm 4 m/S 745 mmHg 93%
08:00 +5°C° 0 mm 4 m/S 745 mmHg 90%
09:00 +5°C° 0 mm 4 m/S 745 mmHg 88%
10:00 +7°C° 0 mm 3 m/S 746 mmHg 85%
11:00 +8°C° 0 mm 3 m/S 746 mmHg 81%
12:00 +8°C° 0 mm 3 m/S 745 mmHg 77%
13:00 +9°C° 0 mm 3 m/S 745 mmHg 73%
14:00 +8°C° 0 mm 3 m/S 745 mmHg 75%
15:00 +8°C° 0 mm 3 m/S 745 mmHg 77%
16:00 +7°C° 0 mm 2 m/S 745 mmHg 79%
17:00 +7°C° 0 mm 2 m/S 745 mmHg 82%
18:00 +7°C° 0 mm 2 m/S 745 mmHg 85%
19:00 +7°C° 0 mm 1 m/S 745 mmHg 88%
20:00 +7°C° 0 mm 1 m/S 745 mmHg 89%
21:00 +6°C° 0 mm 1 m/S 746 mmHg 90%
22:00 +6°C° 0 mm 1 m/S 746 mmHg 91%
23:00 +6°C° 0 mm 1 m/S 746 mmHg 91%

31 Oktober, Samstag

Zeit Temperatur Niederschläge Wind Luftdruck Luftfeuchtigkeit
00:00 +5°C° 0 mm 1 m/S 747 mmHg 91%
01:00 +5°C° 0 mm 1 m/S 747 mmHg 91%
02:00 +5°C° 0 mm 1 m/S 747 mmHg 91%
03:00 +5°C° 0 mm 1 m/S 748 mmHg 91%
04:00 +4°C° 0 mm 1 m/S 748 mmHg 90%
05:00 +4°C° 0 mm 1 m/S 748 mmHg 90%
06:00 +3°C° 0 mm 0 m/S 749 mmHg 90%
07:00 +3°C° 0 mm 0 m/S 749 mmHg 90%
08:00 +6°C° 0 mm 1 m/S 750 mmHg 84%
09:00 +7°C° 0 mm 1 m/S 750 mmHg 78%
10:00 +9°C° 0 mm 1 m/S 750 mmHg 72%
11:00 +9°C° 0 mm 1 m/S 751 mmHg 68%
12:00 +10°C° 0 mm 1 m/S 751 mmHg 65%
13:00 +11°C° 0 mm 1 m/S 751 mmHg 62%
14:00 +10°C° 0 mm 1 m/S 751 mmHg 66%
15:00 +9°C° 0 mm 1 m/S 751 mmHg 71%
16:00 +8°C° 0 mm 1 m/S 751 mmHg 75%
17:00 +7°C° 0 mm 1 m/S 751 mmHg 77%
18:00 +6°C° 0 mm 2 m/S 752 mmHg 80%
19:00 +5°C° 0 mm 2 m/S 752 mmHg 82%
20:00 +5°C° 0 mm 2 m/S 752 mmHg 84%
21:00 +5°C° 0 mm 2 m/S 752 mmHg 86%
22:00 +4°C° 0 mm 2 m/S 752 mmHg 88%
23:00 +4°C° 0 mm 2 m/S 752 mmHg 89%

1 November, Sonntag

Zeit Temperatur Niederschläge Wind Luftdruck Luftfeuchtigkeit
00:00 +4°C° 0 mm 2 m/S 752 mmHg 90%
01:00 +4°C° 0 mm 2 m/S 752 mmHg 91%
02:00 +4°C° 0 mm 2 m/S 752 mmHg 91%
03:00 +3°C° 0 mm 2 m/S 752 mmHg 92%
04:00 +3°C° 0 mm 2 m/S 752 mmHg 92%
05:00 +3°C° 0 mm 2 m/S 752 mmHg 92%
06:00 +2°C° 0 mm 3 m/S 752 mmHg 92%
07:00 +2°C° 0 mm 3 m/S 752 mmHg 92%
08:00 +3°C° 0 mm 3 m/S 752 mmHg 86%
09:00 +5°C° 0 mm 3 m/S 752 mmHg 80%
10:00 +6°C° 0 mm 4 m/S 752 mmHg 74%
11:00 +7°C° 0 mm 4 m/S 752 mmHg 70%
12:00 +8°C° 0 mm 4 m/S 752 mmHg 66%
13:00 +8°C° 0 mm 4 m/S 751 mmHg 62%
14:00 +7°C° 0 mm 4 m/S 751 mmHg 66%
15:00 +8°C° 0 mm 3 m/S 751 mmHg 70%
16:00 +7°C° 0 mm 3 m/S 751 mmHg 74%
17:00 +5°C° 0 mm 3 m/S 751 mmHg 75%
18:00 +5°C° 0 mm 4 m/S 751 mmHg 76%
19:00 +4°C° 0 mm 4 m/S 751 mmHg 78%
20:00 +4°C° 0 mm 4 m/S 751 mmHg 79%
21:00 +4°C° 0 mm 4 m/S 751 mmHg 80%
22:00 +4°C° 0 mm 3 m/S 751 mmHg 82%
23:00 +4°C° 0 mm 4 m/S 751 mmHg 83%
Mehr zeigen